HELSINKI-MALMI current weather conditions

sailwx.info

Wind from 190 at 15 knots

Air temperature 2.0° C
Visibility: greater than 5.4 NM
Dewpoint -0.0° C

Last reported at 2015-Jan-28 16:20 UTC.
Time now 2015-Jan-28 18:21 UTC

Location: N 60°15' E 025°03'.
View on Google Maps.

See reports from other nearby stations

  
Tides and Currents Weather Stations Pressure Air Temp Water Temp Dewpoint Dewpoint Depression Visibility Wind Speed Wind Dir Waves Ship Positions
date/time (UTC)wind fromknots sea level pressurealtimeterstation pressurevisibilityair tempwater tempwave heightnotes
2015-Jan-28 17:20 190 16 gusting 26 5.4 1.0 Light snow.
2015-Jan-28 16:50 190 16 gusting 25 5.4 1.0
2015-Jan-28 16:20 190 15 5.4 2.0
2015-Jan-28 15:50 190 16 gusting 26 5.4 2.0
2015-Jan-28 15:20 180 14 5.4 2.0 Light snow.
2015-Jan-28 14:50 180 13 5.4 2.0 Light snow.
2015-Jan-28 14:20 180 13 gusting 24 5.4 1.0
2015-Jan-28 13:50 180 12 5.4 1.0
2015-Jan-28 13:20 180 12 5.4 1.0
2015-Jan-28 12:50 190 17 gusting 27 5.4 1.0
2015-Jan-28 12:20 190 14 gusting 24 5.4 1.0
2015-Jan-28 11:50 200 14 5.4 1.0
2015-Jan-28 11:20 190 13 5.4 1.0
2015-Jan-28 10:50 200 15 5.4 1.0
2015-Jan-28 10:20 200 14 5.4 1.0
2015-Jan-28 09:50 200 12 5.4 1.0
2015-Jan-28 09:20 190 13 5.4 1.0
2015-Jan-28 08:50 200 11 5.4 1.0
2015-Jan-28 08:20 200 12 5.4 1.0
2015-Jan-28 07:50 200 10 5.4 1.0
2015-Jan-28 07:20 200 11 5.4 1.0
2015-Jan-28 06:50 200 9 5.4 1.0
2015-Jan-28 06:20 210 6 5.4-0.0
2015-Jan-28 06:03 200 5 5.4-0.0
2015-Jan-27 20:20 200 7 3.8-0.0 Light freezing rain.
2015-Jan-27 19:50 200 8 2.5-0.0 Light freezing rain. Mist.
2015-Jan-27 19:20 200 7 2.6-0.0 Light freezing rain.
2015-Jan-27 18:50 190 7 3.8-0.0 Light snow.
2015-Jan-27 18:20 190 8 2.1-1.0 Light snow.
2015-Jan-27 17:50 180 9 3.2-1.0 Light snow.
2015-Jan-27 17:20 190 8 1.0-1.0 Light snow.
2015-Jan-27 16:50 190 8 0.9-1.0 Light snow.
2015-Jan-27 16:20 190 9 1.8-1.0 Light snow.
2015-Jan-27 15:50 200 10 1.9-1.0 Light snow.
2015-Jan-27 15:20 200 9 3.8-1.0 Light snow.
2015-Jan-27 14:50 190 9 3.2-0.0 Light snow.
2015-Jan-27 14:20 190 9 3.2-0.0 Light snow.
2015-Jan-27 13:50 190 10 3.2-0.0 Light snow.
2015-Jan-27 13:20 190 8 5.4-0.0 Light snow.
2015-Jan-27 12:50 180 9 5.4-0.0
2015-Jan-27 12:20 180 8 5.4-0.0
2015-Jan-27 11:50 200 11 5.4-0.0
2015-Jan-27 11:20 200 10 5.4 1.0
2015-Jan-27 10:50 190 10 5.4 1.0
2015-Jan-27 10:20 190 8 5.4-0.0
2015-Jan-27 09:50 180 9 5.4-0.0
2015-Jan-27 09:20 190 8 5.4-0.0
2015-Jan-27 08:50 180 9 5.4-0.0
2015-Jan-27 08:20 170 10 5.4-0.0
2015-Jan-27 07:50 180 9 5.4-0.0
2015-Jan-27 07:20 180 10 5.4-0.0
2015-Jan-27 06:50 180 11 5.4-0.0
2015-Jan-27 06:20 180 10 5.4-0.0
2015-Jan-27 05:50 180 9 5.4-0.0
2015-Jan-27 05:20 180 12 5.4-0.0
2015-Jan-27 04:50 180 9 5.4-0.0
2015-Jan-27 04:20 180 8 5.4-0.0
2015-Jan-27 03:50 180 10 5.4-0.0
2015-Jan-27 03:20 170 10 5.4-0.0
2015-Jan-27 02:50 170 9 5.4-0.0
2015-Jan-27 02:20 170 7 5.4-0.0
2015-Jan-27 01:50 170 9 5.4-0.0
2015-Jan-27 01:20 160 6 5.4-0.0
2015-Jan-27 00:50 170 6 5.4-0.0
2015-Jan-27 00:20 160 8 5.4-0.0
2015-Jan-26 23:50 170 8 5.4 1.0
2015-Jan-26 23:20 170 8 5.4 1.0
2015-Jan-26 22:50 170 9 5.4 1.0
2015-Jan-26 22:20 160 7 5.4 1.0
2015-Jan-26 21:50 170 8 5.4 1.0
2015-Jan-26 21:20 180 8 5.4 1.0
2015-Jan-26 20:50 170 8 5.4 1.0
2015-Jan-26 20:20 180 8 5.4 1.0
2015-Jan-26 19:50 190 8 5.4 1.0
2015-Jan-26 19:20 170 9 5.4 1.0
2015-Jan-26 18:50 180 10 5.4 1.0
2015-Jan-26 18:20 180 9 5.4 1.0